EW7349 Weather Reports


time (UTC)temp
C
wind
direction
speed
KPH
gust
KPH
rain 1hr
cm
rain 24hr
cm
rain mn
cm
humidity
%
barometer
mb
20260905012434 22 106 0.0 1.6 0.00 1.60 1.45 93 1012.5
20260905011927 23 106 0.0 1.6 0.00 1.60 1.45 93 1012.3
20260905011421 23 106 0.0 0.0 0.00 1.60 1.45 94 1012.4
20260905011407 23 106 0.0 0.0 0.00 1.60 1.45 94 1012.3
20260905010409 23 106 0.0 0.0 0.00 1.60 1.45 94 1012.2
20260905005904 23 106 0.0 1.6 0.00 1.60 1.45 93 1012.3
20260905005357 23 106 0.0 3.2 0.00 1.60 1.45 93 1012.1
20260905005117 23 106 0.0 3.2 0.00 1.60 1.45 93 1012.1
20260905004345 23 261 0.0 1.6 0.00 1.60 1.45 93 1012.0
20260905003839 23 261 0.0 1.6 0.00 1.60 1.45 93 1011.9
20260905003334 23 261 0.0 1.6 0.00 1.60 1.45 93 1012.1
20260905002827 23 261 0.0 1.6 0.00 1.60 1.45 93 1012.0
20260905002321 23 261 0.0 0.0 0.00 1.60 1.45 93 1012.0
20260905001815 23 261 0.0 0.0 0.00 1.60 1.45 93 1012.0
20260905001310 23 261 0.0 0.0 0.00 1.60 1.45 93 1012.0
20260905000802 23 261 0.0 0.0 0.00 1.60 1.45 93 1011.9
20260905000257 23 261 0.0 0.0 0.00 1.60 1.45 93 1012.1
20260904235750 23 261 0.0 1.6 0.00 1.60 1.45 93 1012.2
20260904235245 23 261 0.0 1.6 0.00 1.60 1.45 93 1012.4
20260904234739 23 261 0.0 1.6 0.00 1.60 1.45 93 1012.6
20260904234234 23 261 0.0 0.0 0.00 1.60 1.45 93 1012.5
20260904233727 23 261 0.0 0.0 0.00 1.60 1.45 93 1012.6
20260904233221 23 261 0.0 0.0 0.00 1.60 1.45 93 1012.6
20260904232716 23 261 0.0 0.0 0.00 1.60 1.45 93 1012.6
20260904232209 23 261 0.0 0.0 0.00 1.60 1.45 93 1012.3
20260904231703 23 261 0.0 0.0 0.00 1.60 1.45 93 1012.2
20260904231157 23 261 0.0 0.0 0.00 1.60 1.45 93 1012.2
20260904230651 23 261 0.0 1.6 0.00 1.60 1.45 92 1012.2
20260904230144 23 261 0.0 1.6 0.00 1.60 1.45 92 1012.3
20260904225639 23 261 0.0 1.6 0.00 1.60 1.45 92 1012.2
20260904225133 23 261 0.0 1.6 0.00 1.60 1.45 92 1012.2
20260904224628 23 261 0.0 0.0 0.00 1.60 1.45 92 1012.4
20260904224122 23 261 0.0 1.6 0.00 1.60 1.45 92 1012.2
20260904224059 23 261 0.0 0.0 0.00 1.60 1.45 92 1012.3
20260904223109 23 261 0.0 0.0 0.00 1.60 1.45 91 1012.1
20260904222604 23 261 0.0 0.0 0.00 1.60 1.45 91 1012.2
20260904222057 23 261 0.0 0.0 0.00 1.60 1.45 91 1012.2
20260904221550 23 261 0.0 1.6 0.00 1.60 1.45 91 1012.1
20260904221309 23 261 0.0 1.6 0.00 1.60 1.45 91 1012.3
20260904220539 23 261 0.0 1.6 0.00 1.60 1.45 91 1012.6
20260904220036 23 261 0.0 0.0 0.00 1.60 1.45 90 1012.6
20260904220014 23 261 0.0 0.0 0.00 1.60 1.45 90 1013.0
20260904215021 23 261 0.0 0.0 0.03 1.60 1.45 90 1013.2
20260904214515 23 261 0.0 1.6 0.08 1.60 1.45 89 1013.2
20260904214228 23 261 0.0 1.6 0.15 1.60 1.45 89 1013.7
20260904213503 24 261 0.0 1.6 0.23 1.60 1.45 88 1013.7
20260904212957 24 261 0.0 1.6 0.33 1.60 1.45 88 1013.8
20260904212451 24 261 0.0 1.6 0.48 1.60 1.45 88 1013.8
20260904211945 24 313 0.0 1.6 0.64 1.60 1.45 87 1013.8
20260904211439 25 331 0.0 1.6 0.66 1.60 1.45 87 1013.4
20260904210934 25 66 0.0 1.6 0.66 1.60 1.45 86 1013.0
20260904210427 25 66 0.0 1.6 0.66 1.60 1.45 85 1013.0
20260904205921 25 66 0.0 1.6 0.66 1.60 1.45 85 1012.6
20260904205639 25 66 0.0 1.6 0.66 1.60 1.45 84 1012.8
20260904205146 26 63 0.0 3.2 0.64 1.57 1.42 82 1012.8
20260904204642 26 99 1.6 11.3 0.58 1.52 1.37 80 1012.6
20260904203919 26 44 3.2 16.1 0.51 1.45 1.30 79 1013.1
20260904203913 27 115 4.8 16.1 0.41 1.35 1.22 78 1013.8
20260904202919 28 345 4.8 19.3 0.30 1.24 1.09 79 1013.6
20260904202642 29 108 6.4 19.3 0.13 1.07 0.94 78 1013.5
20260904201918 30 46 3.2 17.7 0.00 0.94 0.79 78 1013.7
20260904201418 30 10 0.0 3.2 0.00 0.94 0.79 77 1013.5
20260904200920 30 254 0.0 0.0 0.00 0.94 0.79 76 1013.1
20260904200416 30 254 0.0 1.6 0.00 0.94 0.79 76 1013.1
20260904195916 30 254 0.0 1.6 0.00 0.94 0.79 76 1012.8
20260904195907 31 254 0.0 0.0 0.00 0.94 0.79 76 1012.4
20260904194913 31 254 0.0 0.0 0.00 0.94 0.79 75 1012.2
20260904194902 31 254 0.0 1.6 0.00 0.94 0.79 73 1012.3
20260904193912 31 254 0.0 1.6 0.00 0.94 0.79 73 1012.6
20260904193416 31 254 0.0 0.0 0.00 0.94 0.79 74 1012.9
20260904192913 31 254 0.0 0.0 0.00 0.94 0.79 73 1012.9
20260904192413 30 254 0.0 0.0 0.00 0.94 0.79 74 1012.8
20260904191913 30 254 0.0 0.0 0.00 0.94 0.79 72 1012.9
20260904191412 31 254 0.0 0.0 0.00 0.94 0.79 72 1012.9
20260904190912 31 254 0.0 0.0 0.00 0.94 0.79 69 1012.8
20260904190408 32 254 0.0 1.6 0.00 0.94 0.79 66 1012.9
20260904185909 32 254 0.0 3.2 0.00 0.94 0.79 64 1012.8
20260904185407 32 254 0.0 3.2 0.00 0.94 0.79 60 1012.8
20260904185129 33 292 1.6 4.8 0.00 0.94 0.79 58 1012.8
20260904184408 34 332 1.6 4.8 0.00 0.94 0.79 54 1012.9
20260904183909 34 230 1.6 4.8 0.00 0.94 0.79 57 1013.1
20260904183408 35 144 0.0 4.8 0.00 0.94 0.79 53 1013.2
20260904183138 34 135 1.6 4.8 0.00 0.94 0.79 56 1013.4
20260904182409 35 128 1.6 4.8 0.00 0.94 0.79 55 1013.5
20260904181908 34 52 1.6 4.8 0.00 0.94 0.79 54 1013.6
20260904181407 33 39 1.6 6.4 0.00 0.94 0.79 57 1013.7
20260904180907 34 322 1.6 6.4 0.00 0.94 0.79 54 1013.8
20260904180408 33 241 1.6 3.2 0.00 0.94 0.79 55 1013.8
20260904175906 33 142 1.6 8.0 0.00 0.94 0.79 58 1013.8
20260904175630 33 51 1.6 8.0 0.00 0.94 0.79 58 1013.9
20260904175352 32 226 1.6 4.8 0.00 0.94 0.79 56 1013.8
20260904174406 33 313 1.6 4.8 0.00 0.94 0.79 54 1013.9
20260904173903 33 38 1.6 6.4 0.00 0.94 0.79 56 1014.0
20260904173403 33 313 3.2 6.4 0.00 0.94 0.79 57 1014.0
20260904172904 33 95 3.2 6.4 0.00 0.94 0.79 59 1014.0
20260904172406 32 202 3.2 11.3 0.00 0.94 0.79 57 1014.1
20260904171903 33 84 1.6 11.3 0.00 0.94 0.79 57 1014.2
20260904171402 32 159 1.6 8.0 0.00 0.94 0.79 58 1014.2
20260904170902 32 296 1.6 4.8 0.00 0.94 0.79 59 1014.2
20260904170402 32 276 3.2 6.4 0.00 0.94 0.79 60 1014.2
20260904165902 32 248 1.6 6.4 0.00 0.94 0.79 59 1014.2
20260904165623 32 131 1.6 6.4 0.00 0.94 0.79 56 1014.3
20260904165131 32 289 3.2 6.4 0.00 0.94 0.79 59 1014.3
20260904164400 32 71 3.2 9.7 0.00 0.94 0.79 58 1014.3
20260904163857 32 53 3.2 9.7 0.00 0.94 0.79 61 1014.5
20260904163626 32 60 3.2 9.7 0.00 0.94 0.79 60 1014.5
20260904162900 32 121 1.6 9.7 0.00 0.94 0.79 62 1014.6
20260904162359 31 145 1.6 9.7 0.00 0.94 0.79 64 1014.7
20260904161857 31 257 1.6 8.0 0.00 0.94 0.79 63 1014.6
20260904161358 31 107 1.6 8.0 0.00 0.94 0.79 64 1014.7
20260904160858 31 101 1.6 14.5 0.00 0.94 0.79 66 1014.7
20260904160719 31 174 3.2 14.5 0.00 0.94 0.79 62 1014.7
20260904160626 31 54 1.6 11.3 0.00 0.94 0.79 66 1014.6
20260904155352 30 239 1.6 11.3 0.00 0.94 0.79 68 1014.6
20260904155102 30 34 1.6 11.3 0.00 0.94 0.79 67 1014.5
20260904154339 30 117 1.6 8.0 0.00 0.94 0.79 68 1014.6
20260904153834 30 264 1.6 8.0 0.00 0.94 0.79 69 1014.7
20260904153328 28 150 1.6 11.3 0.00 0.94 0.79 73 1014.8
20260904152822 28 61 1.6 11.3 0.00 0.94 0.79 75 1014.8
20260904152805 28 51 1.6 6.4 0.00 0.94 0.79 74 1014.8
20260904151810 28 270 1.6 6.4 0.00 0.94 0.79 74 1014.7
20260904151304 28 78 1.6 9.7 0.00 0.94 0.79 75 1014.7
20260904150757 27 284 0.0 4.8 0.00 0.94 0.79 79 1014.8
20260904150252 27 149 0.0 4.8 0.00 0.94 0.79 76 1014.8
20260904145746 27 315 1.6 4.8 0.00 0.94 0.79 76 1014.8
20260904145240 27 329 1.6 8.0 0.00 0.94 0.79 78 1014.8
20260904144735 27 292 1.6 8.0 0.00 0.94 0.79 79 1014.9
20260904144449 26 246 1.6 6.4 0.00 0.94 0.79 81 1014.9
20260904143722 26 81 1.6 6.4 0.00 0.94 0.79 83 1014.9
20260904143216 26 261 1.6 6.4 0.00 0.94 0.79 85 1014.9
20260904142710 25 66 1.6 6.4 0.00 0.94 0.79 89 1014.9
20260904142204 24 44 0.0 3.2 0.00 0.94 0.79 95 1014.9
20260904141658 23 21 0.0 4.8 0.00 0.94 0.79 97 1014.9
20260904141153 23 59 0.0 4.8 0.00 0.94 0.79 96 1014.9
20260904140913 23 33 1.6 4.8 0.00 0.94 0.79 97 1014.9
20260904140140 23 56 1.6 4.8 0.00 0.94 0.79 97 1014.9
20260904135634 23 65 1.6 4.8 0.00 0.94 0.79 97 1014.9
20260904135128 23 59 0.0 4.8 0.00 0.94 0.79 97 1014.9
20260904134622 23 45 0.0 1.6 0.00 0.94 0.79 97 1015.0
20260904134117 23 45 0.0 3.2 0.00 0.94 0.79 97 1015.0
20260904133835 23 45 0.0 3.2 0.00 0.94 0.79 97 1014.9
20260904133324 23 45 0.0 0.0 0.00 0.94 0.79 96 1015.0
20260904132558 23 45 0.0 1.6 0.00 0.94 0.79 97 1015.0
20260904132053 22 45 0.0 3.2 0.00 0.94 0.79 97 1015.0
20260904131547 22 45 1.6 3.2 0.00 0.94 0.79 97 1015.0
20260904131039 22 68 0.0 1.6 0.00 0.94 0.79 96 1015.0
20260904130758 22 68 0.0 1.6 0.00 0.94 0.79 96 1015.1
20260904130028 22 68 0.0 3.2 0.00 0.94 0.79 96 1015.2
20260904125522 22 68 0.0 3.2 0.00 0.94 0.79 96 1015.2
20260904125016 21 68 0.0 3.2 0.00 0.94 0.79 96 1015.2
20260904125003 21 68 0.0 3.2 0.00 0.94 0.79 96 1015.2
20260904124455 21 66 0.0 3.2 0.00 0.94 0.79 96 1015.2
20260904123719 21 84 0.0 1.6 0.00 0.94 0.79 96 1015.2
20260904122952 21 84 0.0 1.6 0.00 0.94 0.79 96 1015.1
20260904122446 21 84 0.0 1.6 0.00 0.94 0.79 96 1015.0
20260904121941 21 84 0.0 3.2 0.00 0.94 0.79 96 1015.0
20260904121434 21 84 1.6 3.2 0.00 0.94 0.79 96 1014.9
20260904120928 21 113 1.6 6.4 0.00 0.94 0.79 96 1014.8
20260904120422 21 82 1.6 6.4 0.00 0.94 0.79 96 1014.7
20260904120135 21 90 1.6 6.4 0.00 0.94 0.79 96 1014.8
20260904115410 21 66 1.6 6.4 0.00 0.94 0.79 96 1014.9
20260904114904 21 81 1.6 3.2 0.00 0.94 0.79 96 1014.9
20260904114405 21 195 1.6 3.2 0.00 0.94 0.79 96 1014.7
20260904113904 21 62 1.6 3.2 0.00 0.94 0.79 96 1014.8
20260904113405 21 43 0.0 3.2 0.00 0.94 0.79 96 1014.4
20260904112901 21 43 0.0 3.2 0.00 0.94 0.79 96 1014.3
20260904112402 21 37 0.0 3.2 0.00 0.94 0.79 96 1014.4
20260904111901 21 89 0.0 1.6 0.00 0.94 0.79 96 1014.4
20260904111358 21 89 0.0 1.6 0.00 0.94 0.79 95 1014.3
20260904110858 21 89 0.0 1.6 0.00 0.94 0.79 95 1014.3
20260904110357 21 89 0.0 1.6 0.00 0.94 0.79 95 1014.2
20260904105853 21 89 0.0 1.6 0.00 0.94 0.79 95 1014.2
20260904105352 21 89 0.0 1.6 0.00 0.94 0.79 95 1014.1
20260904104854 21 89 0.0 0.0 0.00 0.94 0.79 95 1014.1
20260904104354 21 89 0.0 1.6 0.00 0.94 0.79 95 1014.1
20260904103854 21 89 0.0 1.6 0.00 0.94 0.79 95 1014.1
20260904103351 21 89 0.0 1.6 0.00 0.94 0.79 95 1014.0
20260904102851 21 89 0.0 1.6 0.00 0.94 0.79 95 1013.9
20260904102352 21 89 0.0 1.6 0.00 0.94 0.79 95 1014.0
20260904101849 21 89 0.0 1.6 0.00 0.94 0.79 95 1013.9
20260904101350 21 89 0.0 3.2 0.00 0.94 0.79 95 1013.9
20260904100848 21 89 0.0 3.2 0.00 0.94 0.79 95 1014.0
20260904100347 21 89 0.0 0.0 0.00 0.94 0.79 95 1013.9
20260904095848 21 89 0.0 0.0 0.00 0.94 0.79 95 1013.9
20260904095612 21 89 0.0 0.0 0.00 0.94 0.79 95 1013.9
20260904094847 21 89 0.0 0.0 0.00 0.94 0.79 95 1013.8
20260904094346 21 89 0.0 0.0 0.00 0.94 0.79 95 1013.7
20260904093847 21 89 0.0 0.0 0.00 0.94 0.79 95 1013.7
20260904093346 21 89 0.0 0.0 0.00 0.94 0.79 95 1013.5
20260904092848 21 89 0.0 0.0 0.00 0.94 0.79 95 1013.6
20260904092344 21 89 0.0 0.0 0.00 0.94 0.79 95 1013.7
20260904091843 21 89 0.0 0.0 0.00 0.94 0.79 95 1013.6
20260904091343 21 89 0.0 0.0 0.00 0.94 0.79 95 1013.7
20260904091101 21 89 0.0 0.0 0.00 0.94 0.79 95 1013.8
20260904090344 21 89 0.0 0.0 0.00 0.94 0.79 95 1013.7
20260904085842 21 89 0.0 0.0 0.00 0.94 0.79 95 1013.8
20260904085344 21 89 0.0 0.0 0.00 0.94 0.79 95 1013.9
20260904084843 21 89 0.0 0.0 0.00 0.94 0.79 95 1014.0
20260904084344 21 89 0.0 0.0 0.00 0.94 0.79 95 1013.9
20260904083839 21 89 0.0 0.0 0.00 0.94 0.79 95 1013.9
20260904083338 21 89 0.0 0.0 0.00 0.94 0.79 95 1013.8
20260904082839 21 89 0.0 0.0 0.00 0.94 0.79 95 1013.9
20260904082601 21 89 0.0 0.0 0.00 0.94 0.79 94 1013.8
20260904081840 21 89 0.0 0.0 0.00 0.94 0.79 94 1013.7
20260904081338 21 89 0.0 0.0 0.00 0.94 0.79 94 1013.7
20260904080838 21 89 0.0 0.0 0.00 0.94 0.79 94 1013.7
20260904080335 21 89 0.0 0.0 0.00 0.94 0.79 94 1013.8
20260904080111 21 89 0.0 0.0 0.00 0.94 0.79 94 1013.9
20260904075334 21 89 0.0 0.0 0.00 0.94 0.79 94 1014.0
20260904074830 21 89 0.0 0.0 0.00 0.94 0.79 94 1013.9
20260904074331 21 89 0.0 0.0 0.00 0.94 0.79 94 1013.9
20260904073832 21 89 0.0 0.0 0.00 0.94 0.79 94 1013.8
20260904073332 21 89 0.0 0.0 0.00 0.94 0.79 94 1013.8
20260904072831 21 89 0.0 0.0 0.00 0.94 0.79 94 1013.7
20260904072331 21 89 0.0 0.0 0.00 0.94 0.79 94 1013.6
20260904071831 21 89 0.0 0.0 0.00 0.94 0.79 94 1013.7
20260904071326 21 89 0.0 0.0 0.00 0.94 0.79 94 1013.7
20260904071048 21 89 0.0 0.0 0.03 0.94 0.79 94 1013.6
20260904070325 21 89 0.0 0.0 0.03 0.94 0.79 94 1013.6
20260904065825 21 89 0.0 0.0 0.03 0.94 0.79 94 1013.4
20260904065543 21 89 0.0 0.0 0.03 0.94 0.79 94 1013.2
20260904065045 21 89 0.0 0.0 0.03 0.94 0.79 94 1013.5
20260904064320 21 89 0.0 0.0 0.03 0.94 0.79 94 1013.5
20260904063818 21 89 0.0 0.0 0.03 0.94 0.79 94 1013.4
20260904063315 21 89 0.0 1.6 0.03 0.94 0.79 94 1013.5
20260904062814 22 89 0.0 3.2 0.05 0.94 0.79 94 1013.5
20260904062312 22 89 0.0 3.2 0.08 0.94 0.79 94 1013.5
20260904061809 22 61 1.6 6.4 0.08 0.94 0.79 94 1013.5
20260904061307 22 301 1.6 6.4 0.10 0.94 0.79 94 1013.1
20260904060806 22 250 0.0 3.2 0.13 0.91 0.76 93 1012.9
20260904060307 22 204 0.0 1.6 0.15 0.91 0.76 93 1012.9
20260904055806 22 204 0.0 1.6 0.20 0.91 0.76 93 1013.0
20260904055530 22 271 0.0 1.6 0.25 0.91 0.76 93 1013.1
20260904054759 22 271 0.0 3.2 0.30 0.91 0.76 93 1013.1
20260904054253 22 232 0.0 3.2 0.38 0.91 0.76 93 1013.0
20260904053747 22 189 0.0 3.2 0.46 0.91 0.76 93 1013.0
20260904053241 22 189 0.0 3.2 0.56 0.91 0.76 93 1013.5
20260904052735 22 121 0.0 0.0 0.61 0.89 0.74 92 1013.9
20260904052228 22 121 0.0 0.0 0.69 0.86 0.74 92 1014.3
20260904051723 22 121 0.0 1.6 0.69 0.84 0.71 92 1014.9
20260904051217 22 121 0.0 1.6 0.69 0.84 0.69 92 1015.0
20260904050711 22 121 0.0 1.6 0.64 0.79 0.64 92 1015.2
20260904050204 22 121 0.0 3.2 0.58 0.74 0.61 92 1015.5
20260904045659 22 121 0.0 3.2 0.56 0.71 0.56 91 1015.6
20260904045651 22 175 0.0 1.6 0.51 0.66 0.51 91 1015.9
20260904044647 22 231 0.0 1.6 0.43 0.58 0.46 91 1016.0
20260904044142 23 231 0.0 4.8 0.36 0.51 0.38 90 1016.5
20260904043636 23 234 1.6 8.0 0.28 0.43 0.28 90 1017.0
20260904043129 23 355 4.8 16.1 0.18 0.33 0.20 90 1016.9
20260904042622 23 338 6.4 16.1 0.10 0.25 0.10 90 1016.6
20260904042117 24 321 4.8 16.1 0.03 0.18 0.03 90 1016.9
20260904041611 25 123 4.8 14.5 0.00 0.15 0.00 91 1016.1
20260904041104 25 273 6.4 29.0 0.00 0.15 0.00 91 1016.1
20260904040559 25 38 4.8 29.0 0.00 0.15 0.00 92 1015.9
20260904040537 25 115 1.6 20.9 0.00 0.15 0.00 93 1015.9
20260904035547 25 88 1.6 3.2 0.03 0.15 0.15 92 1015.5
20260904035043 25 0 0.0 3.2 0.10 0.15 0.15 92 1014.7
20260904034535 25 117 0.0 0.0 0.15 0.15 0.15 92 1014.3
20260904034030 25 117 0.0 0.0 0.15 0.15 0.15 91 1014.3
20260904033522 26 117 0.0 0.0 0.15 0.15 0.15 91 1014.3
20260904033245 26 117 0.0 0.0 0.15 0.15 0.15 92 1014.3
20260904032516 26 117 0.0 0.0 0.15 0.15 0.15 91 1014.3
20260904032006 26 117 0.0 1.6 0.15 0.15 0.15 91 1014.2
20260904031459 26 117 0.0 1.6 0.15 0.15 0.15 91 1014.1
20260904030953 26 117 0.0 3.2 0.15 0.15 0.15 91 1014.1
20260904030653 26 183 1.6 3.2 0.13 0.13 0.13 91 1014.0
20260904030537 26 117 0.0 3.2 0.15 0.15 0.15 90 1014.2
20260904025435 26 148 1.6 12.9 0.10 0.10 0.13 90 1014.0
20260904024931 26 113 1.6 12.9 0.03 0.03 0.05 91 1014.4
20260904024423 26 36 1.6 4.8 0.00 0.00 0.00 90 1014.6
20260904023917 26 306 0.0 3.2 0.00 0.00 0.00 90 1014.5
20260904023411 26 198 0.0 0.0 0.00 0.00 0.00 90 1014.3
20260904023133 26 198 0.0 0.0 0.00 0.00 0.00 90 1014.2
20260904023111 26 198 0.0 0.0 0.00 0.00 0.00 90 1014.3
20260904021854 26 198 0.0 0.0 0.00 0.00 0.00 90 1014.2
20260904021347 26 198 0.0 0.0 0.00 0.00 0.00 90 1014.2
20260904020841 26 198 0.0 0.0 0.00 0.00 0.00 90 1014.3
20260904020554 26 198 0.0 0.0 0.00 0.00 0.00 90 1014.3
20260904015829 27 198 0.0 0.0 0.00 0.00 0.00 89 1014.4
20260904015323 27 198 0.0 0.0 0.00 0.00 0.00 89 1014.4
20260904014817 27 198 0.0 0.0 0.00 0.00 0.00 89 1014.4
20260904014311 27 198 0.0 0.0 0.00 0.00 0.00 89 1014.4
20260904013805 27 198 0.0 0.0 0.00 0.00 0.00 89 1014.3
20260904013300 27 198 0.0 0.0 0.00 0.00 0.00 89 1014.1
20260904012753 27 198 0.0 0.0 0.00 0.00 0.00 88 1014.1